DW7002 Weather Reports


Display with metric or nautical units.
time (UTC)temp
F
wind
direction
speed
MPH
gust
MPH
rain 1hr
in
rain 24hr
in
rain mn
in
humidity
%
barometer
mb
20260509193121 69 274 3.0 5.0 0.00 0.00 0.00 78 1012.0
20260509192134 68 304 0.0 2.0 0.00 0.00 0.00 79 1012.1
20260509191146 68 269 1.0 2.0 0.00 0.00 0.00 79 1012.1
20260509190122 68 266 1.0 5.0 0.00 0.00 0.00 79 1012.2
20260509185131 68 355 2.0 5.0 0.00 0.00 0.00 79 1012.1
20260509184124 68 287 1.0 4.0 0.00 0.00 0.00 79 1012.1
20260509183117 68 274 1.0 5.0 0.00 0.00 0.00 77 1012.4
20260509182134 68 268 3.0 8.0 0.00 0.00 0.00 76 1012.4
20260509181148 69 246 2.0 7.0 0.00 0.00 0.00 76 1012.6
20260509180118 69 253 2.0 6.0 0.00 0.00 0.00 76 1012.5
20260509175130 69 57 1.0 6.0 0.00 0.00 0.00 76 1012.6
20260509174127 70 256 3.0 6.0 0.00 0.00 0.00 74 1012.7
20260509173120 70 276 3.0 5.0 0.00 0.00 0.00 75 1012.8
20260509172152 70 284 2.0 6.0 0.00 0.00 0.00 75 1012.9
20260509171125 69 172 2.0 6.0 0.00 0.00 0.00 77 1012.9
20260509170119 68 148 2.0 8.0 0.00 0.00 0.00 78 1013.1
20260509165130 68 256 2.0 6.0 0.00 0.00 0.00 78 1013.4
20260509164123 69 291 1.0 7.0 0.00 0.00 0.00 77 1013.5
20260509163118 69 248 2.0 6.0 0.00 0.00 0.00 76 1013.5
20260509162133 69 281 2.0 6.0 0.00 0.00 0.00 76 1013.6
20260509161126 69 65 3.0 6.0 0.00 0.00 0.00 75 1013.7
20260509160115 69 271 2.0 6.0 0.00 0.00 0.00 75 1013.5
20260509155129 69 236 3.0 5.0 0.00 0.00 0.00 74 1013.4
20260509154122 67 162 2.0 7.0 0.00 0.00 0.00 74 1013.5
20260509153134 67 286 1.0 6.0 0.00 0.00 0.00 73 1013.7
20260509152130 67 205 1.0 6.0 0.00 0.00 0.00 73 1013.8
20260509151123 67 128 2.0 6.0 0.00 0.00 0.00 74 1013.7
20260509150114 67 296 2.0 5.0 0.00 0.00 0.00 72 1013.6
20260509145124 67 199 2.0 6.0 0.00 0.00 0.00 72 1013.7
20260509144121 66 171 2.0 7.0 0.00 0.00 0.00 74 1013.7
20260509143134 65 123 2.0 4.0 0.00 0.00 0.00 74 1014.0
20260509142147 64 100 3.0 6.0 0.00 0.00 0.00 75 1014.0
20260509141139 64 281 2.0 6.0 0.00 0.00 0.00 76 1014.3
20260509140134 62 109 1.0 6.0 0.00 0.00 0.00 78 1014.2
20260509135125 61 227 1.0 3.0 0.00 0.00 0.00 79 1014.5
20260509134118 61 123 0.0 4.0 0.00 0.00 0.00 81 1014.8
20260509133131 61 294 1.0 4.0 0.00 0.00 0.00 82 1015.0
20260509132147 60 267 1.0 2.0 0.00 0.00 0.00 83 1015.1
20260509131118 59 168 0.0 2.0 0.00 0.00 0.00 85 1015.1
20260509130129 58 22 0.0 2.0 0.00 0.00 0.00 87 1015.0
20260509125124 58 188 1.0 4.0 0.00 0.00 0.00 89 1015.2
20260509124138 56 254 0.0 0.0 0.00 0.00 0.00 91 1015.2
20260509123131 55 121 0.0 0.0 0.00 0.00 0.00 92 1014.8
20260509122123 54 121 0.0 0.0 0.00 0.00 0.00 93 1014.9
20260509121119 53 128 0.0 0.0 0.00 0.00 0.00 93 1014.9
20260509120130 52 125 0.0 0.0 0.00 0.00 0.00 93 1014.8
20260509115119 52 160 0.0 1.0 0.00 0.00 0.00 93 1014.5
20260509114132 51 155 0.0 0.0 0.00 0.00 0.00 93 1014.6
20260509113129 51 122 0.0 0.0 0.00 0.00 0.00 93 1014.7
20260509112122 51 122 0.0 0.0 0.00 0.00 0.00 93 1014.8
20260509111115 50 122 0.0 0.0 0.00 0.00 0.00 93 1014.8
20260509110147 50 120 0.0 0.0 0.00 0.00 0.00 93 1014.5
20260509105120 50 128 0.0 0.0 0.00 0.00 0.00 92 1014.5
20260509104134 50 128 0.0 0.0 0.00 0.00 0.00 92 1014.4
20260509103127 50 128 0.0 0.0 0.00 0.00 0.00 91 1014.2
20260509102124 50 128 0.0 0.0 0.00 0.00 0.00 91 1014.0
20260509101134 50 128 0.0 0.0 0.00 0.00 0.00 91 1013.9
20260509100146 50 128 0.0 0.0 0.00 0.00 0.00 91 1013.8
20260509095116 50 128 0.0 0.0 0.00 0.00 0.00 90 1013.8
20260509094133 50 128 0.0 0.0 0.00 0.00 0.00 90 1013.8
20260509093127 50 128 0.0 0.0 0.00 0.00 0.00 90 1013.9
20260509092139 50 128 0.0 0.0 0.00 0.00 0.00 90 1014.0
20260509091152 50 128 0.0 0.0 0.00 0.00 0.00 89 1014.3
20260509090128 50 128 0.0 0.0 0.00 0.00 0.00 89 1014.3
20260509085118 51 128 0.0 0.0 0.00 0.00 0.00 89 1014.1
20260509084129 51 128 0.0 0.0 0.00 0.00 0.00 88 1014.1
20260509083143 51 128 0.0 0.0 0.00 0.00 0.00 88 1014.3
20260509082120 51 128 0.0 2.0 0.00 0.00 0.00 87 1014.3
20260509081154 51 128 0.0 0.0 0.00 0.00 0.00 88 1014.4
20260509080125 51 128 0.0 1.0 0.00 0.00 0.00 87 1014.6
20260509075134 51 128 1.0 2.0 0.00 0.00 0.00 87 1014.4
20260509074130 51 128 0.0 1.0 0.00 0.00 0.00 88 1014.7
20260509073124 51 128 0.0 0.0 0.00 0.00 0.00 87 1014.6
20260509072115 51 128 0.0 0.0 0.00 0.00 0.00 86 1014.7
20260509071133 51 128 0.0 0.0 0.00 0.00 0.00 86 1014.7
20260509070126 51 128 0.0 1.0 0.00 0.00 0.00 87 1014.9
20260509065116 51 128 0.0 0.0 0.00 0.00 0.00 85 1014.8
20260509064129 52 128 0.0 0.0 0.00 0.00 0.00 84 1014.8
20260509063144 52 128 0.0 1.0 0.00 0.00 0.00 84 1015.0
20260509062115 52 128 0.0 0.0 0.00 0.00 0.00 83 1015.2
20260509061127 52 128 0.0 0.0 0.00 0.00 0.00 83 1015.5
20260509060120 52 128 0.0 0.0 0.00 0.00 0.00 83 1015.5
20260509055154 52 128 0.0 0.0 0.00 0.00 0.00 82 1015.5
20260509054127 53 128 0.0 0.0 0.00 0.00 0.00 82 1015.7
20260509053119 53 128 0.0 0.0 0.00 0.00 0.00 82 1015.8
20260509052116 53 128 0.0 0.0 0.00 0.00 0.00 81 1016.0
20260509051148 53 128 0.0 0.0 0.00 0.00 0.00 81 1016.1
20260509050118 53 128 0.0 0.0 0.00 0.00 0.00 81 1016.2
20260509045128 53 128 0.0 0.0 0.00 0.00 0.00 81 1016.4
20260509044125 53 128 0.0 0.0 0.00 0.00 0.00 82 1016.5
20260509043119 54 128 0.0 0.0 0.00 0.00 0.00 82 1016.3
20260509042132 54 128 0.0 0.0 0.00 0.00 0.00 82 1016.3
20260509041123 54 128 0.0 0.0 0.00 0.00 0.00 81 1016.2
20260509040121 54 128 0.0 0.0 0.00 0.00 0.00 81 1016.1
20260509035131 54 128 0.0 1.0 0.00 0.00 0.00 82 1016.3
20260509034143 54 128 0.0 2.0 0.00 0.00 0.00 82 1016.4
20260509033115 54 128 0.0 0.0 0.00 0.00 0.00 80 1016.2
20260509032132 54 128 0.0 0.0 0.00 0.00 0.00 79 1016.1
20260509031124 54 128 0.0 0.0 0.00 0.00 0.00 79 1016.4
20260509030117 54 128 0.0 0.0 0.00 0.00 0.00 78 1016.5
20260509025130 55 128 0.0 0.0 0.00 0.00 0.00 79 1016.6
20260509024123 55 128 0.0 0.0 0.00 0.00 0.00 79 1016.7
20260509023117 55 128 0.0 0.0 0.00 0.00 0.00 75 1016.7
20260509022130 55 128 0.0 0.0 0.00 0.00 0.00 76 1016.8
20260509021127 55 128 0.0 0.0 0.00 0.00 0.00 75 1016.9
20260509020115 56 128 0.0 0.0 0.00 0.00 0.00 76 1016.7
20260509015126 56 128 0.0 0.0 0.00 0.00 0.00 75 1016.7
20260509014122 56 128 0.0 0.0 0.00 0.00 0.00 74 1016.7
20260509013116 57 128 0.0 0.0 0.00 0.00 0.00 73 1016.6
20260509012128 57 128 0.0 0.0 0.00 0.00 0.00 73 1016.5
20260509011118 58 128 0.0 0.0 0.00 0.00 0.00 71 1016.5
20260509010132 58 128 0.0 0.0 0.00 0.00 0.00 69 1016.3
20260509005121 59 128 0.0 0.0 0.00 0.00 0.00 67 1016.2
20260509004133 60 128 0.0 0.0 0.00 0.00 0.00 68 1016.2
20260509003145 61 128 0.0 0.0 0.00 0.00 0.00 65 1016.3
20260509002122 61 128 0.0 0.0 0.00 0.00 0.00 65 1015.7
20260509001135 62 128 0.0 0.0 0.00 0.00 0.00 63 1015.8
20260509000145 63 128 0.0 0.0 0.00 0.00 0.00 59 1015.7
20260508235135 63 128 0.0 0.0 0.00 0.00 0.00 58 1015.9
20260508234131 64 191 0.0 0.0 0.00 0.00 0.00 57 1015.8
20260508233125 65 191 0.0 1.0 0.00 0.00 0.00 57 1015.9
20260508232117 66 191 0.0 1.0 0.00 0.00 0.00 52 1016.1
20260508231134 66 191 0.0 1.0 0.00 0.00 0.00 52 1016.0
20260508230126 67 191 0.0 2.0 0.00 0.01 0.00 48 1015.9
20260508225155 67 256 1.0 2.0 0.00 0.01 0.00 47 1015.8
20260508224126 68 256 0.0 2.0 0.00 0.01 0.00 48 1015.8
20260508223120 68 279 1.0 2.0 0.00 0.01 0.00 42 1015.9
20260508222132 68 262 1.0 3.0 0.00 0.01 0.00 44 1015.8
20260508221125 68 240 1.0 2.0 0.00 0.01 0.00 44 1015.7
20260508220118 68 272 1.0 3.0 0.00 0.05 0.00 40 1015.5
20260508215134 68 223 1.0 2.0 0.00 0.05 0.00 43 1015.6
20260508214147 68 196 1.0 4.0 0.00 0.05 0.00 43 1015.6
20260508213118 68 264 1.0 5.0 0.00 0.05 0.00 44 1015.9
20260508212116 68 187 1.0 2.0 0.00 0.05 0.00 49 1015.6
20260508211130 68 187 2.0 4.0 0.00 0.05 0.00 45 1015.6
20260508210123 68 190 0.0 2.0 0.00 0.09 0.00 44 1015.8
20260508205132 68 298 1.0 4.0 0.00 0.09 0.00 42 1015.9
20260508204128 68 281 2.0 7.0 0.00 0.09 0.00 43 1015.9
20260508203120 69 288 2.0 5.0 0.00 0.09 0.00 42 1016.3
20260508202131 69 277 2.0 5.0 0.00 0.09 0.00 40 1016.5
20260508201145 69 182 1.0 5.0 0.00 0.09 0.00 38 1016.4
20260508200120 69 181 1.0 4.0 0.00 0.09 0.00 39 1016.6
20260508195132 69 121 1.0 5.0 0.00 0.09 0.00 38 1016.5
20260508194123 70 103 1.0 4.0 0.00 0.09 0.00 40 1016.5